Zurück zum Katalog

STARLINK-35214

AktivKommunikationVLEO
NORAD 65747·PAYLOAD·🇺🇸 United States

Gestartet Sep 25, 2025 von Cape Canaveral Space Force Station

Loading…

Nächste Überflüge (nächste 24 Stunden)

TLE

AktuellSource: CelesTrak SupGP

Epoche: Sep 14, 2026, 22:05 UTC

1 65747C 25216P   26257.92062500 -.00054373  00000+0 -16059-2 0  2574
2 65747  53.1579 171.6585 0001298  93.9246  53.7207 15.34428157    12

Verfolge STARLINK-35214 in Echtzeit mit AllMySat

Download on the App Store